Middlesboro, KY

7:08 AM CST on January 23, 2018 (GMT -0600)
Middlesboro

Weather History for K1A6 - January, 2013

Change the Weather History Date:

Tuesday, January 15, 2013

  Actual Average (KLOZ) Record (KLOZ)
Temperature  
Mean Temperature 39 °F -  
Max Temperature 41 °F 41 °F 67 °F (2007)
Min Temperature 37 °F 23 °F -2 °F (1972)
Degree Days  
Heating Degree Days 26    
Moisture  
Dew Point 38 °F    
Average Humidity 98    
Maximum Humidity 100    
Minimum Humidity 93    
Precipitation  
Precipitation 0.42 in - - ()
Sea Level Pressure  
Sea Level Pressure 30.12 in    
Wind  
Wind Speed 3 mph (NE)    
Max Wind Speed 9 mph    
Max Gust Speed -    
Visibility 8 miles    
Events Rain    
Averages and records for this station are not official NWS values.
T = Trace of Precipitation, MM = Missing Value Source: NWS Daily Summary

Daily Weather History Graph

Daily Weather History Graph

Search for Another Location

Airport or City:

Trip Planner

Search our weather history database for the weather conditions in past years. The results will help you decide how hot, cold, wet, or windy it might be!

Date:

Astronomy

Jan. 15, 2013 Rise Set
Actual Time 6:46 AM CST 4:43 PM CST
Civil Twilight 6:18 AM CST 5:11 PM CST
Nautical Twilight 5:46 AM CST 5:43 PM CST
Astronomical Twilight 5:15 AM CST 6:14 PM CST
Moon 8:59 AM CST (1/15) 9:22 PM CST (1/15)
Length of Visible Light 10h 53m
Length of Day
9h 56m
Waxing Crescent, 19% of the Moon is Illuminated
Jan 15
Waxing Crescent
Jan 18
First Quarter
Jan 26
Full
Feb 3
Last Quarter
Feb 10
New

Hourly Weather History & Observations

Time (CST) Temp. Windchill Dew Point Humidity Pressure Visibility Wind Dir Wind Speed Gust Speed Precip Events Conditions
12:15 AM 39.2 °F 37.0 °F 39.2 °F 100% 30.17 in 10.0 mi NE 3.5 mph - N/A   Overcast
12:35 AM 39.2 °F 37.0 °F 39.2 °F 100% 30.17 in 10.0 mi ENE 3.5 mph - N/A   Overcast
12:55 AM 39.2 °F 35.9 °F 39.2 °F 100% 30.16 in 10.0 mi NNE 4.6 mph - N/A   Overcast
1:15 AM 39.2 °F 35.9 °F 37.4 °F 93% 30.16 in 10.0 mi ENE 4.6 mph - N/A   Overcast
1:35 AM 39.2 °F - 37.4 °F 93% 30.16 in 10.0 mi Calm Calm - N/A   Overcast
2:15 AM 39.2 °F 35.0 °F 37.4 °F 93% 30.17 in 10.0 mi NNE 5.8 mph - N/A   Overcast
2:35 AM 39.2 °F 34.2 °F 37.4 °F 93% 30.16 in 10.0 mi ENE 6.9 mph - N/A   Overcast
2:55 AM 37.4 °F 32.1 °F 37.4 °F 100% 30.16 in 10.0 mi NE 6.9 mph - N/A   Overcast
3:15 AM 37.4 °F 30.8 °F 37.4 °F 100% 30.16 in 10.0 mi NNE 9.2 mph - N/A   Overcast
3:35 AM 37.4 °F 32.8 °F 37.4 °F 100% 30.16 in 10.0 mi NNE 5.8 mph - N/A   Overcast
3:55 AM 37.4 °F 34.9 °F 37.4 °F 100% 30.18 in 10.0 mi North 3.5 mph - N/A   Overcast
4:15 AM 37.4 °F 34.9 °F 37.4 °F 100% 30.18 in 10.0 mi NNE 3.5 mph - N/A   Overcast
4:55 AM 37.4 °F 33.8 °F 37.4 °F 100% 30.19 in 10.0 mi NNE 4.6 mph - N/A   Light Drizzle
5:15 AM 37.4 °F 32.1 °F 37.4 °F 100% 30.19 in 10.0 mi North 6.9 mph - N/A   Light Drizzle
5:35 AM 37.4 °F 32.8 °F 37.4 °F 100% 30.19 in 10.0 mi NNE 5.8 mph - N/A   Overcast
5:55 AM 37.4 °F - 37.4 °F 100% 30.21 in 10.0 mi Calm Calm - N/A   Light Drizzle
6:15 AM 37.4 °F 32.8 °F 37.4 °F 100% 30.20 in 7.0 mi NE 5.8 mph - N/A Rain Light Rain
6:35 AM 37.4 °F 32.1 °F 37.4 °F 100% 30.22 in 7.0 mi North 6.9 mph - N/A Rain Rain
6:55 AM 37.4 °F - 37.4 °F 100% 30.20 in 10.0 mi Calm Calm - N/A Rain Light Rain
7:15 AM 37.4 °F 30.8 °F 37.4 °F 100% 30.23 in 10.0 mi NNE 9.2 mph - N/A   Overcast
7:35 AM 37.4 °F 32.1 °F 37.4 °F 100% 30.23 in 10.0 mi North 6.9 mph - N/A   Overcast
7:55 AM 37.4 °F 33.8 °F 37.4 °F 100% 30.22 in 10.0 mi NE 4.6 mph - N/A   Overcast
8:15 AM 37.4 °F 33.8 °F 37.4 °F 100% 30.25 in 10.0 mi North 4.6 mph - N/A   Overcast
8:35 AM 37.4 °F 32.1 °F 37.4 °F 100% 30.24 in 10.0 mi NNE 6.9 mph - N/A Rain Light Rain
8:55 AM 37.4 °F 33.8 °F 37.4 °F 100% 30.23 in 10.0 mi North 4.6 mph - N/A Rain Light Rain
9:15 AM 39.2 °F - 37.4 °F 93% 30.22 in 10.0 mi Calm Calm - N/A   Drizzle
9:35 AM 39.2 °F - 37.4 °F 93% 30.20 in 10.0 mi Calm Calm - N/A Rain Light Rain
9:55 AM 37.4 °F - 37.4 °F 100% 30.17 in 10.0 mi Calm Calm - N/A Rain Light Rain
10:15 AM 37.4 °F - 37.4 °F 100% 30.18 in 7.0 mi Calm Calm - N/A Rain Light Rain
10:35 AM 39.2 °F - 37.4 °F 93% 30.17 in 2.5 mi Calm Calm - 0.01 in Rain Rain
10:55 AM 39.2 °F - 37.4 °F 93% 30.16 in 5.0 mi Calm Calm - N/A Rain Rain
11:15 AM 39.2 °F - 37.4 °F 93% 30.13 in 2.0 mi Calm Calm - N/A Rain Rain
11:35 AM 39.2 °F - 37.4 °F 93% 30.12 in 10.0 mi Calm Calm - N/A Rain Light Rain
11:55 AM 39.2 °F - 37.4 °F 93% 30.10 in 5.0 mi Calm Calm - N/A Rain Rain
12:15 PM 39.2 °F - 37.4 °F 93% 30.09 in 7.0 mi Calm Calm - N/A Rain Light Rain
12:35 PM 39.2 °F - 39.2 °F 100% 30.10 in 4.0 mi Calm Calm - 0.01 in Rain Rain
12:55 PM 39.2 °F - 39.2 °F 100% 30.09 in 2.5 mi Calm Calm - 0.01 in Rain Rain
1:15 PM 39.2 °F - 39.2 °F 100% 30.08 in 7.0 mi Calm Calm - 0.01 in Rain Rain
1:35 PM 39.2 °F 37.0 °F 39.2 °F 100% 30.07 in 10.0 mi East 3.5 mph - 0.01 in Rain Light Rain
1:55 PM 39.2 °F - 39.2 °F 100% 30.04 in 10.0 mi Calm Calm - N/A Rain Light Rain
2:55 PM 41.0 °F 39.0 °F 39.2 °F 93% 30.06 in 7.0 mi ENE 3.5 mph - N/A Rain Rain
3:15 PM 39.2 °F - 39.2 °F 100% 30.06 in 2.5 mi Calm Calm - 0.01 in Rain Rain
3:35 PM 39.2 °F 37.0 °F 39.2 °F 100% 30.05 in 2.5 mi ESE 3.5 mph - 0.04 in Rain Rain
3:55 PM 39.2 °F 37.0 °F 39.2 °F 100% 30.06 in 4.0 mi ESE 3.5 mph - 0.01 in Rain Rain
4:15 PM 39.2 °F - 39.2 °F 100% 30.06 in 10.0 mi Calm Calm - 0.04 in Rain Rain
4:35 PM 39.2 °F - 39.2 °F 100% 30.06 in 5.0 mi Calm Calm - 0.05 in Rain Rain
4:55 PM 39.2 °F - 39.2 °F 100% 30.05 in 4.0 mi Calm Calm - 0.01 in Rain Rain
5:15 PM 39.2 °F 33.6 °F 39.2 °F 100% 30.05 in 7.0 mi ENE 8.1 mph - 0.04 in Rain Rain
5:35 PM 39.2 °F 34.2 °F 39.2 °F 100% 30.06 in 10.0 mi NE 6.9 mph - 0.07 in Rain Rain
5:55 PM 39.2 °F 35.9 °F 37.4 °F 93% 30.07 in 5.0 mi NNE 4.6 mph - 0.02 in Rain Rain
6:15 PM 39.2 °F 34.2 °F 37.4 °F 93% 30.07 in 3.0 mi NE 6.9 mph - 0.08 in Rain Heavy Rain
6:35 PM 37.4 °F 32.8 °F 37.4 °F 100% 30.06 in 2.5 mi ENE 5.8 mph - 0.17 in Rain Rain
6:55 PM 37.4 °F 32.8 °F 37.4 °F 100% 30.05 in 5.0 mi NE 5.8 mph - 0.01 in Rain Rain
7:15 PM 37.4 °F - 37.4 °F 100% 30.04 in 3.0 mi Calm Calm - 0.02 in Rain Rain
7:35 PM 37.4 °F - 37.4 °F 100% 30.04 in 7.0 mi Calm Calm - 0.03 in Rain Rain
7:55 PM 37.4 °F - 37.4 °F 100% 30.04 in 5.0 mi Calm Calm - N/A Rain Rain
8:15 PM 37.4 °F - 37.4 °F 100% 30.03 in 4.0 mi Calm Calm - N/A Rain Light Rain
8:35 PM 37.4 °F - 37.4 °F 100% 30.03 in 3.0 mi Calm Calm - N/A Rain Rain
8:55 PM 37.4 °F - 37.4 °F 100% 30.03 in 4.0 mi Calm Calm - N/A Rain Light Rain
9:15 PM 37.4 °F - 37.4 °F 100% 30.04 in 1.8 mi Calm Calm - 0.02 in Rain Rain
9:35 PM 37.4 °F - 37.4 °F 100% 30.03 in 7.0 mi Calm Calm - 0.03 in Rain Light Rain
9:55 PM 37.4 °F - 37.4 °F 100% 30.02 in 7.0 mi Calm Calm - N/A Rain Light Rain
10:15 PM 37.4 °F - 37.4 °F 100% 30.01 in 5.0 mi Calm Calm - N/A Rain Rain
10:35 PM 37.4 °F - 37.4 °F 100% 30.00 in 10.0 mi Calm Calm - N/A Rain Light Rain
10:55 PM 37.4 °F - 37.4 °F 100% 29.99 in 10.0 mi Calm Calm - N/A Rain Rain
11:15 PM 37.4 °F - 37.4 °F 100% 29.97 in 10.0 mi Calm Calm - N/A Rain Light Rain
11:35 PM 37.4 °F - 37.4 °F 100% 29.97 in 10.0 mi Calm Calm - N/A Rain Light Rain